Find Starlink 30607

NORAD ID: 58099 Int'l Des: 2023-161 Owner: SPXS Country: US Constellation: starlink operational
LEOCIRCULAR

当前视图

正在加载3D地球...

About Starlink 30607

Starlink 30607 (NORAD 58099) is a starlink constellation satellite (v2 mini) launched Oct 21, 2023 by SPXS of US. It operates in LEO, CIRCULAR orbit with a mass of 730.00 kg.

即将过境

Passes for default location (London). Set your location on the main map for personalized predictions.

高度历史

Loading altitude history...

两行轨道根数

1 58099U 23161C 26236.32103875 -.00000085 00000-0 86301-5 0 9999
2 58099 53.1614 96.4150 0001426 87.1552 272.9614 15.34394361160220
Epoch: Aug 24, 2026 • Age: 29 hours

当前状态

高度 472.7 km
远地点 / 近地点 N/A
速度 7.63 km/s
星下点 -30.56°S, 131.12°E
发射日期 Oct 21, 2023
运行时间 2.8 years
类型 internet

技术详情

分类 Payload
质量 730.00 kg
干质量 700.00 kg
总质量 730.00 kg
长度 0.30 m
直径 4.10 m
跨度 29.00 m
形状 Box + pan
制造商 SPXS
平台类型 Starlink V2M
阶段状态 In Orbit
所有者/国家 SPXS/US

Most Searched